Home > Weather > Neuwied > Past weeks

Flag for Germany Past Weather in Neuwied, Rhineland-Palatinate, Germany — Yesterday and Last 2 Weeks

Now
66 °F

Mild.


Feels Like: 66 °F
Forecast: 54 / 71 °F
Wind: 6 mph from Northwest

Location: Buechel

Current Time: Jul 30, 2016 at 9:01:33 PM

Latest Report: Jul 30, 2016 at 8:20 PM


Visibility: 6 mi

Pressure: 29.95 "Hg

Humidity: 68%

Dew Point: 55 °F

Location of NeuwiedLocation

Past Weather in Neuwied — Graph

°F

Neuwied Temperature Yesterday

Maximum temperature yesterday: 70 °F (at 2:20 PM)
Minimum temperature yesterday: 57 °F (at 1:20 AM)
Average temperature yesterday: 62 °F

High & Low Weather Summary for the Past Weeks

 TemperatureHumidityPressure
High88 °F (Jul 20, 4:20 PM)100% (Jul 21, 7:20 AM)30.33 "Hg (Jul 21, 7:20 AM)
Low52 °F (Jul 16, 3:20 AM)38% (Jul 20, 4:20 PM)29.95 "Hg (Jul 20, 6:20 PM)
Average66 °F77%30.11 "Hg
* Reported Jul 15 7:20 PM — Jul 30 7:20 PM, Neuwied, Weather by CustomWeather, © 2016

Note: Actual official high and low records may vary slightly from our data, if they occured in-between our weather recording intervals... More about our weather records

Advertising

Neuwied Weather History for the Previous 24 Hours

Scroll right to see more
 ConditionsComfort  
Time TempWeatherWind HumidityBarometerVisibility
7:20 PM
Sat, Jul 30
68 °FMild.6 mph64%29.95 "Hg6 mi
6:20 PM68 °FMild.6 mph64%29.95 "HgN/A
5:20 PM70 °FMild.8 mph57%29.95 "HgN/A
4:20 PM70 °FMild.9 mph57%29.95 "HgN/A
3:20 PM68 °FMild.9 mph60%29.98 "HgN/A
2:20 PM68 °FMild.8 mph60%29.98 "Hg6 mi
1:20 PM68 °FMild.8 mph64%29.98 "HgN/A
12:20 PM66 °FMild.9 mph64%29.98 "HgN/A
11:20 AM64 °FMild.9 mph64%29.98 "Hg6 mi
10:20 AM63 °FMild.9 mph64%29.98 "Hg6 mi
9:20 AM63 °FMild.8 mph68%29.98 "Hg6 mi
8:20 AM61 °FCool.6 mph83%29.95 "Hg4 mi
7:20 AM59 °FCool.5 mph100%29.95 "Hg3 mi
6:20 AM59 °FCool.3 mph100%29.95 "Hg2 mi
5:20 AM59 °FCool.5 mph94%29.95 "Hg4 mi
4:20 AM61 °FCool.6 mph94%29.95 "Hg4 mi
3:20 AM61 °FCool.6 mph94%29.95 "Hg4 mi
2:20 AM61 °FCool.5 mph94%29.95 "Hg4 mi
1:20 AM63 °FMild.8 mph88%29.95 "Hg4 mi
12:20 AM63 °FMild.6 mph88%29.95 "Hg4 mi
11:20 PM
Fri, Jul 29
63 °FMild.5 mph83%29.98 "Hg4 mi
10:20 PM64 °FMild.7 mph78%29.95 "Hg4 mi
9:20 PM64 °FMild.6 mph78%29.95 "Hg5 mi
Weather by CustomWeather, © 2016

See weather overviewHow to use our weather pages